Terug naar catalogus

COSMOS 397 DEB

ActiefLEO
NORAD 5019·DEBRIS·🇷🇺 Russia

Gelanceerd Feb 25, 1971 vanaf Baikonur Cosmodrome

Loading…

Volgende Passages (komende 24 uur)

TLE

VersSource: Space-Track

Epoch: Sep 14, 2026, 00:08 UTC

1 05019U 71015N   26257.00617288  .00010196  00000-0  15816-2 0  9993
2 05019  65.6768 254.9972 0381008 331.5535  26.5214 14.34755026724963

Volg COSMOS 397 DEB in realtime met AllMySat

Download on the App Store